[[{"header":{"parameterUnit":"m.s-1","parameterCategory":1,"la1":30.2991,"la2":30.254,"lo1":-89.0895,"lo2":-89.0444,"dy":0.0017,"dx":0.0017,"nx":28,"ny":28,"refTime":"2025-04-25T09:00:00:Z","depth":0,"parameterNumber":2,"parameterNumberName":"U-component_of_WINDS"},"data":[0,0,0,0,0,0,0,0,0,0,0,0,0,0,0,0,0,0,0,0,0,0,0,0,0,0,0,0,0,0,0,0,0,0,0,0,0,0,0,0,0,0,0,0,0,0,0,0,0,0,0,0,0,0,0,0,0,0,-1.7348,-1.7349,0,-1.7418,-1.7419,-1.742,-1.7437,-1.7437,-1.7436,-1.7436,-1.7506,-1.7508,-1.751,0,0,0,0,0,0,0,0,0,0,0,0,0,-1.7228,-1.723,-1.7348,-1.7349,-1.735,-1.7418,-1.7419,-1.742,-1.7437,-1.7437,-1.7436,-1.7436,-1.7505,-1.7507,-1.751,0,0,0,0,0,0,0,0,0,0,0,0,0,-1.7287,-1.7231,-1.7348,-1.7367,-1.7369,-1.7418,-1.7419,-1.742,-1.7437,-1.7437,-1.7436,-1.7435,-1.7504,-1.7507,-1.7511,-1.7545,0,0,-1.7521,-1.7522,0,0,0,0,0,0,0,0,-1.7284,-1.7292,-1.7363,-1.7365,-1.7368,-1.7418,-1.7402,-1.7462,-1.7438,-1.7411,-1.7436,-1.7435,-1.7477,-1.7482,-1.7497,-1.7548,-1.7551,-1.7521,-1.7523,-1.7525,-1.7526,0,0,0,0,0,0,0,-1.728,-1.7289,-1.7376,-1.7364,-1.7367,-1.7371,-1.7379,-1.7414,-1.7447,-1.7414,-1.7415,-1.7423,-1.7478,-1.7494,-1.7499,-1.7552,-1.7521,-1.7524,-1.7526,-1.7528,-1.7636,-1.7637,0,0,0,0,0,0,-1.7273,-1.7285,-1.7373,-1.7378,-1.7324,-1.7374,-1.7383,-1.7403,-1.7447,-1.7453,-1.7424,-1.7424,-1.7488,-1.7495,-1.7501,-1.7545,-1.7525,-1.7528,-1.753,-1.7635,-1.7636,-1.7637,0,0,0,0,0,0,-1.727,-1.7281,-1.7371,-1.7332,-1.7344,-1.7377,-1.7399,-1.7405,-1.742,-1.7454,-1.746,-1.7434,-1.7488,-1.7497,-1.7534,-1.7548,-1.7529,-1.7533,-1.7634,-1.7636,-1.7637,-1.7632,0,0,0,0,0,0,-1.7267,-1.7279,-1.7293,-1.7332,-1.7346,-1.7403,-1.74,-1.7406,-1.7426,-1.7427,-1.7465,-1.7471,-1.7488,-1.7529,-1.7538,-1.7552,-1.7535,-1.7633,-1.7635,-1.7636,-1.7631,-1.7633,-1.7634,0,0,0,0,0,-1.7262,-1.7288,-1.7293,-1.7304,-1.7363,-1.7403,-1.7411,-1.7431,-1.7427,-1.7441,-1.7463,-1.7469,-1.7545,-1.7533,-1.7543,-1.7558,-1.7633,-1.7634,-1.7636,-1.763,-1.7632,-1.7634,0,0,0,0,0,0,-1.7248,-1.7293,-1.73,-1.7339,-1.7367,-1.7406,-1.7424,-1.7433,-1.7462,-1.7461,-1.7485,-1.7493,-1.7529,-1.7548,-1.7533,-1.7594,-1.7589,-1.7593,-1.7581,-1.7583,-1.7585,-1.7579,-1.7538,0,0,0,0,0,-1.725,-1.7279,-1.7317,-1.7347,-1.7362,-1.739,-1.7408,-1.7422,-1.7452,-1.7463,-1.7488,-1.7517,-1.7547,-1.7566,-1.7596,-1.7634,-1.7643,-1.765,-1.7651,-1.7653,-1.7655,-1.7678,-1.7682,-1.7644,-1.7644,-1.7643,0,0,-1.7253,-1.7281,-1.7298,-1.7345,-1.7369,-1.7398,-1.74,-1.7431,-1.7453,-1.7468,-1.7505,-1.7525,-1.7558,-1.7597,-1.7615,-1.7613,-1.7668,-1.7655,-1.7656,-1.7658,-1.768,-1.7684,-1.7687,-1.7645,-1.7645,-1.7644,0,0,-1.7273,-1.7298,-1.7327,-1.7351,-1.7387,-1.7406,-1.7413,-1.7451,-1.7465,-1.7503,-1.7516,-1.7542,-1.7593,-1.7617,-1.7636,-1.7668,-1.7674,-1.7677,-1.7685,-1.7707,-1.771,-1.7712,-1.7724,-1.7728,-1.7679,-1.7679,-1.7679,0,-1.7272,-1.7318,-1.734,-1.7371,-1.7392,-1.7408,-1.7438,-1.746,-1.7503,-1.7517,-1.7515,-1.758,-1.7604,-1.7648,-1.7657,-1.7671,-1.768,-1.7672,-1.7707,-1.771,-1.7713,-1.7725,-1.7729,-1.7679,-1.7679,-1.7679,-1.7679,0,-1.7315,-1.7346,-1.7365,-1.7408,-1.7431,-1.7461,-1.7488,-1.7509,-1.7521,-1.754,-1.7579,-1.7609,-1.7645,-1.7657,-1.7668,-1.7703,-1.7701,-1.7703,-1.7698,-1.7717,-1.7727,-1.7732,-1.7679,-1.7679,-1.7679,-1.7679,0,0,-1.7327,-1.7383,-1.739,-1.741,-1.7452,-1.7476,-1.7507,-1.7544,-1.7561,-1.7591,-1.7618,-1.7662,-1.7664,-1.7686,-1.77,-1.7719,-1.7743,-1.7719,-1.772,-1.7722,-1.7784,-1.7782,-1.7787,-1.7749,-1.7749,-1.775,-1.7781,0,-1.7353,-1.7409,-1.7431,-1.7477,-1.7506,-1.7523,-1.7551,-1.7579,-1.7599,-1.7627,-1.7648,-1.7679,-1.768,-1.7693,-1.7713,-1.7736,-1.7756,-1.7734,-1.7773,-1.7774,-1.7764,-1.7793,-1.779,-1.7818,-1.7786,-1.7787,-1.7787,0,-1.739,-1.7422,-1.7471,-1.751,-1.7523,-1.7547,-1.7583,-1.761,-1.7643,-1.7656,-1.768,-1.7694,-1.7727,-1.7721,-1.7768,-1.7752,-1.777,-1.7784,-1.7786,-1.7789,-1.7781,-1.7797,-1.7828,-1.7832,-1.7794,-1.7794,-1.7793,0,-1.7394,-1.7449,-1.7485,-1.7502,-1.7549,-1.7565,-1.7586,-1.7618,-1.7639,-1.7671,-1.7685,-1.7719,-1.7738,-1.7765,-1.7787,-1.7781,-1.7832,-1.7827,-1.7843,-1.7843,-1.7852,-1.7851,-1.7886,-1.7865,-1.7864,-1.7864,-1.7864,0,-1.742,-1.7449,-1.7488,-1.751,-1.7544,-1.7569,-1.7602,-1.7623,-1.7652,-1.7679,-1.7696,-1.7721,-1.775,-1.7778,-1.7797,-1.7832,-1.7841,-1.7852,-1.7856,-1.785,-1.7849,-1.7862,-1.786,-1.7866,-1.7865,-1.7865,-1.7865,0,-1.743,-1.7457,-1.7498,-1.7539,-1.7551,-1.7574,-1.7609,-1.7632,-1.7653,-1.7687,-1.7696,-1.7729,-1.7764,-1.779,-1.7835,-1.7847,-1.7885,-1.789,-1.7874,-1.7876,-1.7891,-1.7889,-1.7934,-1.7942,-1.7916,-1.7916,-1.7916,0,-1.7444,-1.7467,-1.7512,-1.7532,-1.7552,-1.7583,-1.7605,-1.7632,-1.7654,-1.7694,-1.7712,-1.7748,-1.7778,-1.7833,-1.7861,-1.7896,-1.7901,-1.7915,-1.7906,-1.79,-1.7901,-1.7899,-1.7902,-1.7916,-1.7916,-1.7916,-1.7916,0,-1.7467,-1.748,-1.7511,-1.7548,-1.7574,-1.7603,-1.7633,-1.7648,-1.768,-1.7704,-1.774,-1.7764,-1.7811,-1.7846,-1.7884,-1.7905,-1.7916,-1.7919,-1.7924,-1.7918,-1.7908,-1.7913,-1.7877,-1.7917,-1.7917,-1.7917,-1.7917,-1.7917,-1.748,-1.7502,-1.7537,-1.7571,-1.7597,-1.7625,-1.7649,-1.7673,-1.7704,-1.7745,-1.7758,-1.7796,-1.783,-1.7882,-1.7903,-1.7933,-1.7933,-1.7941,-1.7943,-1.7944,-1.7944,-1.7904,-1.794,-1.794,-1.794,-1.794,-1.794,0,-1.7504,-1.7528,-1.7559,-1.7601,-1.7629,-1.7638,-1.7672,-1.7694,-1.7727,-1.7758,-1.7788,-1.783,-1.7866,-1.7897,-1.7934,-1.7952,-1.7958,-1.796,-1.7959,-1.7964,-1.7942,-1.7933,-1.7955,-1.7955,-1.7955,-1.7955,-1.7955,-1.7955,-1.752,-1.7557,-1.7574,-1.7625,-1.7648,-1.7686,-1.7705,-1.7731,-1.7756,-1.7802,-1.7832,-1.7853,-1.7884,-1.7923,-1.7956,-1.7965,-1.7977,-1.7979,-1.7988,-1.7967,-1.7965,-1.7963,-1.7955,-1.7981,-1.7981,-1.8008,-1.8008,-1.8008]},{"header":{"parameterUnit":"m.s-1","parameterCategory":1,"la1":30.2991,"la2":30.254,"lo1":-89.0895,"lo2":-89.0444,"dy":0.0017,"dx":0.0017,"nx":28,"ny":28,"refTime":"2025-04-25T09:00:00:Z","depth":0,"parameterNumber":3,"parameterNumberName":"V-component_of_WINDS"},"data":[0,0,0,0,0,0,0,0,0,0,0,0,0,0,0,0,0,0,0,0,0,0,0,0,0,0,0,0,0,0,0,0,0,0,0,0,0,0,0,0,0,0,0,0,0,0,0,0,0,0,0,0,0,0,0,0,0,0,3.8532,3.8532,0,3.8572,3.8573,3.8573,3.8546,3.8545,3.8544,3.8542,3.8581,3.8583,3.8586,0,0,0,0,0,0,0,0,0,0,0,0,0,3.8428,3.843,3.8532,3.8532,3.8533,3.8572,3.8573,3.8573,3.8546,3.8545,3.8543,3.8542,3.8581,3.8583,3.8586,0,0,0,0,0,0,0,0,0,0,0,0,0,3.8471,3.8431,3.8531,3.8524,3.8524,3.8572,3.8573,3.8573,3.8547,3.8545,3.8543,3.8541,3.858,3.8583,3.8586,3.8643,0,0,3.8596,3.8597,0,0,0,0,0,0,0,0,3.8469,3.8475,3.8525,3.8525,3.8524,3.8552,3.855,3.8597,3.8547,3.8538,3.8542,3.854,3.8573,3.8577,3.8588,3.8645,3.8646,3.8596,3.8598,3.86,3.8601,0,0,0,0,0,0,0,3.8466,3.8473,3.8547,3.8525,3.8525,3.8518,3.8522,3.8559,3.8565,3.8538,3.8537,3.8542,3.8572,3.8585,3.8589,3.8647,3.8596,3.8599,3.8601,3.8602,3.8752,3.8754,0,0,0,0,0,0,3.8464,3.8471,3.8546,3.8549,3.8492,3.8521,3.8526,3.8545,3.8565,3.8566,3.8543,3.8541,3.858,3.8585,3.859,3.8658,3.86,3.8603,3.8605,3.875,3.8753,3.8755,0,0,0,0,0,0,3.8462,3.8471,3.8545,3.8509,3.8518,3.8525,3.8547,3.8547,3.8559,3.8568,3.8569,3.8555,3.8579,3.8586,3.863,3.8659,3.8604,3.8607,3.8748,3.8751,3.8754,3.8794,0,0,0,0,0,0,3.8459,3.847,3.8493,3.851,3.852,3.8585,3.8549,3.8549,3.8565,3.8562,3.858,3.8581,3.8578,3.8625,3.8633,3.8662,3.861,3.8745,3.8749,3.8753,3.879,3.8798,3.8805,0,0,0,0,0,3.8455,3.8502,3.8494,3.8503,3.8548,3.8587,3.8592,3.8589,3.8568,3.859,3.8596,3.858,3.8655,3.863,3.8639,3.8669,3.8743,3.8748,3.8752,3.8787,3.8797,3.8805,0,0,0,0,0,0,3.8487,3.8504,3.8495,3.8549,3.8567,3.8582,3.861,3.8599,3.8622,3.8618,3.8612,3.8616,3.8663,3.8671,3.8643,3.8725,3.8695,3.8702,3.8719,3.8728,3.8735,3.8732,3.8612,0,0,0,0,0,3.85,3.8531,3.8544,3.859,3.8599,3.8603,3.862,3.8616,3.8633,3.864,3.8649,3.8666,3.8693,3.8711,3.8736,3.8791,3.8795,3.8817,3.8824,3.883,3.8835,3.8865,3.8875,3.877,3.877,3.877,0,0,3.8528,3.8541,3.856,3.8597,3.861,3.8641,3.861,3.8644,3.8666,3.8645,3.8688,3.8695,3.8714,3.8764,3.8786,3.8771,3.8865,3.8836,3.884,3.8843,3.8871,3.888,3.8889,3.8773,3.8772,3.8772,0,0,3.8594,3.8607,3.8647,3.8661,3.8682,3.8684,3.8694,3.8711,3.8715,3.8758,3.8743,3.8769,3.8816,3.883,3.8843,3.8914,3.8901,3.8923,3.8961,3.899,3.8998,3.9005,3.9031,3.904,3.8928,3.8928,3.8928,0,3.8625,3.8672,3.8669,3.8704,3.872,3.8703,3.8743,3.8757,3.8784,3.8795,3.8779,3.8837,3.8848,3.8901,3.8919,3.893,3.894,3.8921,3.8997,3.9005,3.9011,3.9035,3.9045,3.8931,3.8931,3.893,3.893,0,3.871,3.8743,3.8772,3.88,3.882,3.8857,3.8858,3.8878,3.8872,3.8876,3.892,3.8933,3.8961,3.8973,3.8967,3.9025,3.9015,3.8998,3.8968,3.9024,3.9046,3.9055,3.8934,3.8934,3.8933,3.8932,0,0,3.8797,3.8823,3.8834,3.8846,3.8868,3.8893,3.8929,3.8957,3.8974,3.8993,3.9023,3.9063,3.9048,3.9062,3.9058,3.9083,3.9139,3.9063,3.9063,3.9076,3.9203,3.9216,3.9227,3.913,3.9132,3.9133,3.9201,0,3.8864,3.8929,3.8927,3.8987,3.9017,3.9001,3.9032,3.9049,3.9053,3.9078,3.9083,3.9111,3.9088,3.9097,3.9122,3.9127,3.9164,3.9122,3.9157,3.9158,3.9153,3.9238,3.9252,3.9316,3.921,3.9212,3.9213,0,3.8952,3.8975,3.9038,3.9056,3.9068,3.9097,3.9122,3.9146,3.9164,3.9165,3.9182,3.9174,3.921,3.9179,3.9228,3.9199,3.9213,3.9218,3.9221,3.9224,3.9189,3.9243,3.9336,3.9346,3.9226,3.9225,3.9224,0,3.9009,3.9056,3.91,3.9111,3.9132,3.9153,3.9162,3.9178,3.9195,3.9217,3.9227,3.9253,3.9267,3.9286,3.9284,3.9262,3.9334,3.9303,3.9336,3.9336,3.9352,3.9351,3.9448,3.9361,3.9361,3.9361,3.936,0,3.9085,3.9124,3.9126,3.9153,3.9196,3.9193,3.9235,3.9243,3.9257,3.9284,3.9272,3.9298,3.9294,3.932,3.9318,3.9359,3.9365,3.9367,3.9366,3.9368,3.9368,3.9377,3.9373,3.9363,3.9363,3.9362,3.9362,0,3.9156,3.9159,3.9206,3.9222,3.9227,3.9258,3.9272,3.9297,3.93,3.9335,3.9343,3.9348,3.9377,3.9378,3.9411,3.941,3.946,3.9454,3.9454,3.9453,3.9486,3.9483,3.9592,3.9606,3.9511,3.9511,3.9512,0,3.9204,3.9234,3.9254,3.9272,3.9283,3.9312,3.9329,3.9327,3.9345,3.9367,3.939,3.9418,3.9441,3.9488,3.9495,3.952,3.9515,3.9551,3.9518,3.9519,3.9515,3.9513,3.9516,3.9557,3.9559,3.9559,3.956,0,3.929,3.929,3.9316,3.9342,3.9364,3.9384,3.9403,3.9418,3.9418,3.9439,3.9469,3.9487,3.9522,3.955,3.9574,3.9583,3.9572,3.957,3.9579,3.9582,3.9581,3.9582,3.9472,3.9568,3.9567,3.9567,3.9566,3.9566,3.9351,3.9377,3.9395,3.9424,3.9438,3.9456,3.9481,3.9487,3.9513,3.9541,3.9538,3.9572,3.9588,3.962,3.9631,3.9656,3.9644,3.9656,3.966,3.9663,3.9667,3.9577,3.9661,3.9661,3.966,3.966,3.966,0,3.9435,3.9446,3.9473,3.9501,3.9523,3.9511,3.9531,3.9551,3.9581,3.9598,3.9621,3.9655,3.9683,3.9691,3.9717,3.9736,3.9731,3.9743,3.9742,3.9744,3.9677,3.9666,3.9746,3.9746,3.9746,3.9746,3.9746,3.9746,3.9482,3.9525,3.9527,3.9577,3.9587,3.9621,3.9633,3.965,3.9663,3.9702,3.9725,3.9731,3.9744,3.9771,3.9795,3.9796,3.9807,3.982,3.982,3.9757,3.9748,3.974,3.973,3.9823,3.9823,3.9885,3.9885,3.9886]}]]